GW6421 Weather Reports


time (UTC)temp
C
wind
direction
speed
KPH
gust
KPH
rain 1hr
cm
rain 24hr
cm
rain mn
cm
humidity
%
barometer
mb
20260503212006 11 80 1.6 3.2 0.00 0.00 0.00 87 1020.5
20260503211517 12 82 1.6 3.2 0.00 0.00 0.00 87 1020.5
20260503211010 12 81 1.6 3.2 0.00 0.00 0.00 86 1020.5
20260503210507 12 81 1.6 3.2 0.00 0.00 0.00 86 1020.5
20260503210016 12 80 1.6 1.6 0.00 0.00 0.00 86 1020.5
20260503205508 12 80 0.0 3.2 0.00 0.00 0.00 86 1020.5
20260503205007 12 80 1.6 3.2 0.00 0.00 0.00 85 1020.4
20260503204514 12 95 1.6 3.2 0.00 0.00 0.00 85 1020.4
20260503204010 12 120 0.0 1.6 0.00 0.00 0.00 85 1020.4
20260503203512 13 120 0.0 1.6 0.00 0.00 0.00 85 1020.5
20260503203017 13 120 0.0 1.6 0.00 0.00 0.00 84 1020.5
20260503202509 13 120 0.0 1.6 0.00 0.00 0.00 84 1020.5
20260503202010 13 120 0.0 1.6 0.00 0.00 0.00 84 1020.4
20260503201518 13 225 0.0 1.6 0.00 0.00 0.00 83 1020.4
20260503201007 13 226 0.0 0.0 0.00 0.00 0.00 83 1020.4
20260503200512 14 226 0.0 0.0 0.00 0.00 0.00 82 1020.3
20260503200017 14 227 0.0 0.0 0.00 0.00 0.00 81 1020.3
20260503195508 15 227 0.0 1.6 0.00 0.00 0.00 81 1020.3
20260503195013 15 227 0.0 1.6 0.00 0.00 0.00 81 1020.3
20260503194516 15 243 0.0 1.6 0.00 0.00 0.00 82 1020.2
20260503194014 15 246 0.0 1.6 0.00 0.00 0.00 81 1020.3
20260503193507 15 245 0.0 3.2 0.00 0.00 0.00 81 1020.3
20260503193016 15 206 0.0 3.2 0.00 0.00 0.00 81 1020.2
20260503192508 15 255 0.0 3.2 0.00 0.00 0.00 81 1020.2
20260503192011 15 237 0.0 3.2 0.00 0.00 0.00 81 1020.2
20260503191520 15 245 0.0 3.2 0.00 0.00 0.00 81 1020.2
20260503191007 15 250 0.0 4.8 0.00 0.00 0.00 80 1020.0
20260503190507 15 254 1.6 4.8 0.00 0.00 0.00 80 1020.0
20260503190018 15 233 1.6 3.2 0.00 0.00 0.00 80 1020.1
20260503185508 15 278 1.6 3.2 0.00 0.00 0.00 80 1020.0
20260503185007 15 260 1.6 6.4 0.00 0.00 0.00 79 1019.9
20260503184518 15 221 1.6 6.4 0.00 0.00 0.00 79 1019.9
20260503184011 15 255 1.6 6.4 0.00 0.00 0.00 79 1019.9
20260503183507 15 240 1.6 4.8 0.00 0.00 0.00 79 1019.8
20260503183019 16 242 3.2 4.8 0.00 0.00 0.00 78 1019.7
20260503182509 16 240 1.6 6.4 0.00 0.00 0.00 78 1019.7
20260503182014 16 242 3.2 6.4 0.00 0.00 0.00 77 1019.7
20260503181518 16 233 1.6 4.8 0.00 0.00 0.00 77 1019.6
20260503181006 16 245 1.6 4.8 0.00 0.00 0.00 77 1019.6
20260503180509 16 240 1.6 6.4 0.00 0.00 0.00 76 1019.5
20260503180018 16 250 1.6 6.4 0.00 0.00 0.00 76 1019.6
20260503175507 17 240 3.2 11.3 0.00 0.00 0.00 75 1019.5
20260503175008 17 250 3.2 11.3 0.00 0.00 0.00 75 1019.5
20260503174520 17 262 6.4 11.3 0.00 0.00 0.00 74 1019.6
20260503174007 17 259 4.8 11.3 0.00 0.00 0.00 74 1019.6
20260503173507 17 252 3.2 14.5 0.00 0.00 0.00 74 1019.6
20260503173022 17 239 4.8 14.5 0.00 0.00 0.00 73 1019.6
20260503172510 17 276 3.2 9.7 0.00 0.00 0.00 72 1019.7
20260503172010 17 288 4.8 9.7 0.00 0.00 0.00 72 1019.6
20260503171520 18 276 3.2 12.9 0.00 0.00 0.00 72 1019.6
20260503171008 18 259 6.4 17.7 0.00 0.00 0.00 71 1019.6
20260503170510 18 276 6.4 17.7 0.00 0.00 0.00 71 1019.6
20260503151006 20 230 3.2 11.3 0.00 0.00 0.00 66 1019.8
20260503150508 19 257 6.4 14.5 0.00 0.00 0.00 67 1019.9
20260503131007 19 238 9.7 20.9 0.00 0.00 0.00 66 1021.5
20260503130505 19 217 11.3 20.9 0.00 0.00 0.00 66 1021.6
20260503110504 18 236 8.0 19.3 0.00 0.00 0.00 69 1021.8
20260503090509 19 245 4.8 11.3 0.00 0.00 0.00 55 1022.0
20260503081520 18 240 3.2 9.7 0.00 0.00 0.00 67 1022.0
20260503081012 18 269 4.8 9.7 0.00 0.00 0.00 67 1021.9
20260503080508 18 221 3.2 6.4 0.00 0.00 0.00 67 1021.9
20260503072507 18 255 1.6 4.8 0.00 0.00 0.00 69 1022.0
20260503072009 18 115 0.0 1.6 0.00 0.00 0.00 70 1022.1
20260503071518 17 127 1.6 4.8 0.00 0.00 0.00 71 1022.1
20260503071008 16 16 1.6 6.4 0.00 0.00 0.00 72 1022.1
20260503070508 16 38 3.2 6.4 0.00 0.00 0.00 71 1022.1
20260503055009 12 42 3.2 8.0 0.00 0.00 0.00 86 1022.2
20260503054521 11 69 3.2 8.0 0.00 0.00 0.00 87 1022.1
20260503054009 11 38 4.8 8.0 0.00 0.00 0.00 87 1022.1
20260503053507 11 53 4.8 8.0 0.00 0.00 0.00 87 1022.0
20260503053024 10 53 4.8 8.0 0.00 0.00 0.00 87 1022.0
20260503052504 10 49 1.6 4.8 0.00 0.00 0.00 87 1021.9
20260503052007 10 35 3.2 4.8 0.00 0.00 0.00 88 1021.9
20260503051510 10 41 3.2 4.8 0.00 0.00 0.00 88 1021.9
20260503051008 10 54 3.2 6.4 0.00 0.00 0.00 89 1021.8
20260503050507 9 52 3.2 6.4 0.00 0.00 0.00 89 1021.7
20260503050023 9 51 3.2 4.8 0.00 0.00 0.00 89 1021.8
20260503045509 8 58 1.6 4.8 0.00 0.00 0.00 90 1021.8
20260503045009 8 46 1.6 4.8 0.00 0.00 0.00 90 1021.8
20260503044519 8 50 3.2 4.8 0.00 0.00 0.00 90 1021.8
20260503044008 8 53 1.6 3.2 0.00 0.00 0.00 90 1021.8
20260503043507 8 72 0.0 6.4 0.00 0.00 0.00 91 1021.7
20260503043027 8 75 1.6 6.4 0.00 0.00 0.00 91 1021.7
20260503042509 8 26 3.2 6.4 0.00 0.00 0.00 90 1021.7
20260503042011 8 77 1.6 6.4 0.00 0.00 0.00 90 1021.7
20260503041532 8 44 3.2 6.4 0.00 0.00 0.00 91 1021.7
20260503041002 8 44 3.2 6.4 0.00 0.00 0.00 91 1021.6
20260503040507 8 56 1.6 6.4 0.00 0.00 0.00 91 1021.6
20260503040011 7 39 1.6 6.4 0.00 0.00 0.00 91 1021.6
20260503035507 7 42 3.2 6.4 0.00 0.00 0.00 91 1021.6
20260503035005 7 22 3.2 6.4 0.00 0.00 0.00 90 1021.5
20260503034516 7 51 3.2 4.8 0.00 0.00 0.00 90 1021.5
20260503034007 7 47 3.2 6.4 0.00 0.00 0.00 90 1021.5
20260503033507 7 40 3.2 6.4 0.00 0.00 0.00 90 1021.5
20260503033019 7 44 3.2 4.8 0.00 0.00 0.00 90 1021.5
20260503032509 8 46 3.2 6.4 0.00 0.00 0.00 90 1021.5
20260503032010 8 44 3.2 6.4 0.00 0.00 0.00 90 1021.5
20260503031523 8 49 1.6 4.8 0.00 0.00 0.00 90 1021.5
20260503031009 8 68 1.6 6.4 0.00 0.00 0.00 90 1021.5
20260503030508 8 60 1.6 6.4 0.00 0.00 0.00 90 1021.5
20260503030025 8 37 4.8 4.8 0.00 0.00 0.00 90 1021.5
20260503025511 8 41 3.2 4.8 0.00 0.00 0.00 90 1021.6
20260503025006 8 64 3.2 4.8 0.00 0.00 0.00 89 1021.5
20260503024514 8 63 3.2 4.8 0.00 0.00 0.00 89 1021.7
20260503024006 8 37 3.2 4.8 0.00 0.00 0.00 89 1021.6
20260503023510 8 53 1.6 3.2 0.00 0.00 0.00 89 1021.6
20260503023018 8 43 1.6 3.2 0.00 0.00 0.00 89 1021.7
20260503022507 8 47 1.6 3.2 0.00 0.00 0.00 89 1021.7
20260503022008 8 39 1.6 3.2 0.00 0.00 0.00 89 1021.7
20260503021524 8 75 1.6 8.0 0.00 0.00 0.00 89 1021.8
20260503021007 8 68 3.2 8.0 0.00 0.00 0.00 89 1021.6
20260503020507 8 45 4.8 8.0 0.00 0.00 0.00 89 1021.6
20260503020023 8 86 1.6 4.8 0.00 0.00 0.00 89 1021.6
20260503015509 8 46 3.2 3.2 0.00 0.00 0.00 89 1021.8
20260503015009 8 47 1.6 3.2 0.00 0.00 0.00 89 1021.8
20260503014526 8 47 1.6 3.2 0.00 0.00 0.00 89 1021.9
20260503014011 8 39 1.6 4.8 0.00 0.00 0.00 89 1021.9
20260503013504 8 39 1.6 4.8 0.00 0.00 0.00 89 1021.9
20260503013014 8 79 1.6 4.8 0.00 0.00 0.00 89 1021.9
20260503012506 8 96 1.6 6.4 0.00 0.00 0.00 89 1021.8
20260503012009 8 49 3.2 6.4 0.00 0.00 0.00 89 1021.8
20260503011518 8 82 1.6 6.4 0.00 0.00 0.00 88 1021.9
20260503011008 8 51 3.2 6.4 0.00 0.00 0.00 88 1022.0
20260503010507 8 56 1.6 4.8 0.00 0.00 0.00 88 1021.9
20260503010027 8 68 1.6 6.4 0.00 0.00 0.00 88 1022.0
20260503005511 8 51 3.2 6.4 0.00 0.00 0.00 88 1022.0
20260503005010 8 46 3.2 6.4 0.00 0.00 0.00 88 1022.0
20260503004526 8 44 3.2 6.4 0.00 0.00 0.00 87 1022.0
20260503004016 8 49 3.2 4.8 0.00 0.00 0.00 87 1022.0
20260503003511 8 46 3.2 4.8 0.00 0.00 0.00 87 1022.1
20260503003026 8 49 3.2 4.8 0.00 0.00 0.00 87 1022.2
20260503002509 8 45 3.2 6.4 0.00 0.00 0.00 87 1022.2
20260503002007 8 49 1.6 6.4 0.00 0.00 0.00 86 1022.2
20260503001516 8 34 3.2 4.8 0.00 0.00 0.00 86 1022.3
20260503001007 8 41 1.6 4.8 0.00 0.00 0.00 86 1022.3
20260503000507 8 43 3.2 6.4 0.00 0.00 0.00 86 1022.3
20260503000022 8 41 3.2 6.4 0.00 0.00 0.00 85 1022.2
20260502235508 8 51 3.2 4.8 0.00 0.00 0.00 85 1022.3
20260502235010 8 44 3.2 4.8 0.00 0.00 0.00 85 1022.3
20260502234529 8 46 3.2 4.8 0.00 0.00 0.00 84 1022.4
20260502234012 8 67 1.6 4.8 0.00 0.00 0.00 84 1022.4
20260502233511 8 56 3.2 3.2 0.00 0.00 0.00 83 1022.4
20260502233027 9 74 1.6 4.8 0.00 0.00 0.00 83 1022.4
20260502232515 9 77 1.6 4.8 0.00 0.00 0.00 83 1022.5
20260502232007 9 51 3.2 4.8 0.00 0.00 0.00 82 1022.5
20260502231527 9 56 1.6 4.8 0.00 0.00 0.00 82 1022.6
20260502231012 9 62 1.6 4.8 0.00 0.00 0.00 82 1022.6
20260502230507 9 66 1.6 4.8 0.00 0.00 0.00 82 1022.7
20260502230024 9 37 1.6 4.8 0.00 0.00 0.00 81 1022.7
20260502225509 9 61 1.6 4.8 0.00 0.00 0.00 81 1022.6
20260502225012 10 56 1.6 4.8 0.00 0.00 0.00 81 1022.6
20260502224523 10 46 1.6 4.8 0.00 0.00 0.00 81 1022.7
20260502224006 10 31 3.2 4.8 0.00 0.00 0.00 81 1022.8
20260502223508 10 51 1.6 3.2 0.00 0.00 0.00 81 1022.8
20260502223022 10 75 1.6 4.8 0.00 0.00 0.00 81 1022.7
20260502222508 10 75 3.2 4.8 0.00 0.00 0.00 80 1022.7
20260502222009 10 78 1.6 3.2 0.00 0.00 0.00 80 1022.7
20260502221525 10 83 1.6 3.2 0.00 0.00 0.00 80 1022.7
20260502221009 10 83 1.6 3.2 0.00 0.00 0.00 79 1022.7
20260502220511 11 83 1.6 3.2 0.00 0.00 0.00 79 1022.6
20260502220029 11 83 1.6 1.6 0.00 0.00 0.00 78 1022.6
20260502215511 11 83 1.6 3.2 0.00 0.00 0.00 76 1022.6
20260502215012 11 83 1.6 3.2 0.00 0.00 0.00 75 1022.6
20260502214519 11 84 1.6 3.2 0.00 0.00 0.00 74 1022.6
20260502214007 11 82 1.6 3.2 0.00 0.00 0.00 73 1022.6
20260502213508 11 82 0.0 3.2 0.00 0.00 0.00 72 1022.6
20260502213021 12 82 1.6 3.2 0.00 0.00 0.00 71 1022.5
20260502212514 12 82 1.6 1.6 0.00 0.00 0.00 71 1022.5